Regional Weather Roundup
Issued by NWS

Home | Current Version | Previous Version | Text Only | Print | Product List | Glossary On
Versions: 1 2 3 4 5 6 7 8 9 10 11 12 13 14 15 16 17 18 19 20 21 22 23 24 25 26 27 28
000
ASUS45 KSLC 292010
RWRUT

UTAH REGIONAL WEATHER ROUNDUP
NATIONAL WEATHER SERVICE SALT LAKE CITY UT
200 PM MDT MON AUG 29 2016

UTZ001>011-023>025-292100-

NORTHERN UTAH

CITY           SKY/WX    TMP DP  RH WIND       PRES   REMARKS
BRIGHAM CITY     N/A     88  30  12 W3        30.19F
HILL AFB       SUNNY     87  39  18 NW13      30.22F
LOGAN          SUNNY     85  34  16 CALM      30.21F
OGDEN          SUNNY     88  40  18 NW9       30.19F
PROVO AIRPORT  NOT AVBL
SALT LAKE CITY MOSUNNY   92  34  13 NW8       30.17F
VERNAL         SUNNY     83  41  22 S8        30.24F
WENDOVER       SUNNY     88  34  14 SE6       30.20F
HEBER CITY     SUNNY     86  27  11 W3        30.25F
WEST JORDAN    SUNNY     88  38  16 CALM      30.21F

$$

UTZ012>022-026-027-292100-

SOUTHERN/CENTRAL UTAH

CITY           SKY/WX    TMP DP  RH WIND       PRES   REMARKS
BLANDING       SUNNY     78  40  26 CALM      30.37F
BRYCE CANYON   MOSUNNY   76  36  23 E8G16     30.41F
CEDAR CITY     SUNNY     87  38  17 NW12      30.25F
DELTA          SUNNY     88  28  11 W5        30.21F
MILFORD        NOT AVBL
MOAB/CYNLANDS  SUNNY     87  41  19 MISG      30.17F
PRICE          MOSUNNY   86  30  13 VRB7      30.26F
ST GEORGE      CLEAR     91  52  25 CALM      30.08F

$$

REGIONAL REPORTS     COLORADO/ARIZONA

CITY           SKY/WX    TMP DP  RH WIND       PRES   REMARKS
CRAIG, CO      CLOUDY    80  31  16 E5        30.32F
GRAND JUNCTION CLOUDY    82  41  23 SE9       30.22F
RIFLE          CLOUDY    73  46  38 SE7       30.30F
MONTROSE       CLOUDY    74  44  34 CALM      30.31F
CORTEZ         SUNNY     77  44  30 CALM      30.29F
PAGE, AZ       SUNNY     87  44  22 VRB5      30.18F
GRAND CANYON   SUNNY     76  44  32 E5        30.35F
KINGMAN        SUNNY     92  44  19 NW8       30.09F
FLAGSTAFF      SUNNY     73  42  32 E16       30.34F

$$

REGIONAL REPORTS    NEVADA/IDAHO/WYOMING

CITY           SKY/WX    TMP DP  RH WIND       PRES   REMARKS
LAS VEGAS, NV  MOSUNNY   99  39  12 CALM      29.99F HX  94
ELY            SUNNY     85  23  10 S5        30.31F
ELKO           MOSUNNY   90  26  10 VRB5      30.21F
POCATELLO, ID  CLOUDY    89  37  16 NW8       30.22F
BURLEY         SUNNY     89  38  16 E8        30.15F
EVANSTON, WY   SUNNY     80  25  13 CALM      30.39F
ROCK SPRINGS   SUNNY     82  22  11 NE9G18    30.37F

$$




USA.gov is the U.S. government's official web portal to all federal, state and local government web resources and services.